SCP
-0 0 0 0 0 0 0 0 0 0 0 0 0 0 0 0 0 0 0 0 0 0 0 0 0 0 0 0 0 0 0 0 0 0 0 0 0 0 0 0 0 0 0 0
-0 0 0 0 0 0 0 0 1 0 0 0 0 0 0 0 0 0 0 0 0 0 0 0 0 0 0 0 0 0 0 0 0 0 0 0 0 0 0 0 0 0 0 0
-0 0 0 0 0 0 0 0 1 1 0 0 0 0 0 0 0 0 0 0 0 0 0 0 0 0 0 0 0 0 0 0 0 0 0 0 0 0 0 0 0 0 0 0
-0 0 0 0 0 0 0 1 0 0 0 0 0 0 0 0 0 0 0 0 0 0 0 0 0 0 0 0 0 0 0 0 0 0 0 0 0 0 0 0 0 0 0 0
-0 0 0 0 0 0 0 1 0 0 0 0 0 0 0 0 0 0 0 0 0 0 0 0 0 0 0 0 0 0 0 0 0 0 0 0 0 0 0 0 0 0 0 0
0 0 0 0 0 0 0 1 0 0 0 0 0 0 0 0 0 0 0 0 0 0 0 0 0 0 0 0 0 0 0 0 0 0 0 0 0 0 0 0 0 0 0 0
0 0 0 0 0 0 1 1 0 1 0 0 0 0 0 0 0 0 0 0 0 0 -0 -0 -0 0 0 0 0 0 0 0 0 0 0 0 0 0 0 0 0 0 0 0
0 0 0 0 0 0 0 1 0 0 0 0 0 0 0 0 0 0 0 0 0 0 0 0 0 0 0 0 0 0 0 0 0 0 0 0 0 0 0 0 0 0 0 0
0 0 0 0 0 0 0 1 0 0 0 0 0 0 0 0 0 0 0 0 0 0 0 0 0 0 0 0 0 0 0 0 0 0 0 0 0 0 0 0 0 0 0 0
0 0 0 0 0 0 0 1 0 1 1 0 0 0 0 0 0 0 0 0 0 0 0 0 0 0 0 0 0 0 0 0 0 0 0 0 0 0 0 0 0 0 0 0
0 0 0 0 0 0 0 0 0 1 0 0 0 0 0 0 0 0 0 0 0 0 0 0 0 0 0 0 0 0 0 0 0 0 0 0 0 0 0 0 0 0 0 0
0 0 0 0 0 0 0 0 0 0 0 0 0 0 0 0 0 0 0 0 0 0 0 0 0 0 0 0 0 0 0 0 0 0 0 0 0 0 0 0 0 0 0 0
0 0 0 0 -0 0 0 0 0 0 0 0 0 0 0 0 0 0 0 0 0 0 0 0 0 0 0 0 0 0 0 0 0 0 0 0 0 0 0 0 0 0 0 0
0 0 0 0 -0 0 0 0 0 0 0 0 0 0 0 0 0 0 0 0 0 0 0 0 0 0 0 0 0 0 0 0 0 0 0 0 0 0 0 0 0 0 0 0
0 0 0 0 0 0 0 0 0 0 0 0 0 0 0 0 0 0 0 0 0 0 0 0 0 0 0 0 0 0 0 0 0 0 0 0 0 0 0 0 0 0 0 0
0 0 0 0 0 0 0 0 0 0 0 0 0 0 0 0 0 0 0 0 0 0 0 0 0 0 0 0 0 0 0 0 0 0 0 0 0 0 0 0 0 0 0 0
0 0 0 0 0 0 0 0 0 0 0 0 0 0 0 0 0 0 0 0 0 0 0 0 0 0 0 0 0 0 0 0 0 0 0 0 0 0 0 0 0 0 0 0
0 0 0 0 0 0 0 0 0 0 0 0 0 0 0 0 0 0 0 0 0 0 0 0 0 0 0 0 0 0 0 0 0 0 0 0 0 0 0 0 0 0 0 0
0 0 0 0 0 0 0 0 0 0 0 0 0 0 0 0 0 0 0 0 0 0 0 0 0 0 0 0 0 0 0 0 0 0 0 0 0 0 0 0 0 0 0 0
0 0 0 0 0 0 0 0 0 0 0 0 0 0 0 0 0 0 0 0 0 0 0 0 0 0 0 0 0 0 0 0 0 0 0 0 0 0 0 0 0 0 0 0
0 0 0 0 0 0 0 0 0 0 0 0 0 0 0 0 0 0 0 0 0 0 0 0 0 0 0 0 0 0 0 0 0 0 0 0 0 0 0 0 0 0 0 0
0 0 0 0 0 0 0 0 0 0 0 0 0 0 0 0 0 0 0 0 0 0 0 0 0 0 0 0 0 0 0 0 0 0 0 0 0 0 0 0 0 0 0 0
0 0 0 0 0 0 0 0 0 0 0 0 0 0 0 0 0 0 0 0 0 0 0 0 0 0 0 0 0 0 0 0 0 0 0 0 0 0 0 0 0 0 0 0
0 0 0 0 0 0 0 0 0 0 0 0 0 0 0 0 0 0 0 0 0 0 0 0 0 0 0 0 0 0 0 0 0 0 0 0 0 0 0 0 0 0 0 0
0 0 0 0 0 0 0 0 0 0 0 0 0 0 0 0 0 0 0 0 0 0 0 0 0 0 0 0 0 0 0 0 0 0 0 0 0 0 0 0 0 0 0 0
0 0 0 0 0 0 0 0 0 0 0 0 0 0 0 0 0 0 0 0 0 0 0 0 0 0 0 0 0 0 0 0 0 0 0 0 0 0 0 0 0 0 0 0
0 0 0 0 0 0 0 0 0 0 0 0 0 0 0 0 0 0 0 0 0 0 0 0 0 0 0 0 0 0 0 0 0 0 0 0 0 0 0 0 0 0 0 0
Wind_Speed_500mb
64 90 88 85 79 68 62 40 18 38 45 24 26 24 25 11 15 14 13 13 14 24 21 17 18 21 5 10 9 11 4 2 8 10 6 1 4 10 16 7 9 2 5 6
68 75 72 94 85 80 77 38 18 40 61 22 17 18 14 14 12 16 17 16 10 11 19 11 11 12 4 7 10 12 12 7 8 8 9 8 13 17 10 7 2 12 6 5
74 100 64 88 82 82 61 49 15 18 30 33 32 27 30 17 6 10 9 10 9 15 11 1 14 15 5 5 5 7 9 7 14 19 3 1 12 23 23 21 8 9 20 23
76 91 75 87 83 83 62 38 20 33 25 32 24 32 29 28 12 7 16 9 17 17 11 12 11 11 10 7 12 6 5 11 9 3 1 6 9 15 25 31 28 15 22 23
74 92 67 87 83 85 72 29 20 29 52 47 26 23 24 34 11 11 15 15 20 14 11 16 20 20 14 9 13 9 4 7 6 7 4 4 14 17 21 30 32 30 38 40
89 76 75 87 90 105 45 33 33 54 18 28 24 22 23 27 23 3 6 22 18 12 9 10 16 14 17 12 13 13 9 11 8 5 5 5 12 30 36 26 25 29 29 31
92 82 85 92 94 117 42 35 38 32 13 25 27 24 20 24 18 13 10 8 8 12 40 43 37 37 30 23 19 6 11 10 3 2 3 6 3 1 6 24 33 30 33 21
76 78 88 91 94 111 59 31 34 25 7 31 23 27 14 22 14 11 14 8 9 44 10 8 8 4 5 9 14 10 1 8 5 5 8 12 23 6 6 7 12 8 23 16
73 84 87 89 96 101 51 34 31 35 23 20 38 25 28 15 11 10 9 17 40 10 4 4 8 9 7 9 9 6 9 6 4 6 5 7 6 7 2 4 11 6 6 8
80 82 84 88 103 102 45 35 30 32 15 16 27 31 25 16 12 11 15 22 7 5 3 4 5 6 2 10 11 8 4 2 7 7 8 12 2 3 6 5 7 3 3 7
77 78 82 91 103 97 46 44 36 29 14 19 20 22 21 18 20 12 24 14 4 5 4 5 6 4 8 6 5 8 11 12 7 5 6 8 12 12 6 7 9 6 8 9
74 77 83 93 105 66 46 45 35 27 20 14 22 23 30 33 27 22 37 2 15 17 7 2 6 5 2 2 6 6 7 6 2 11 3 6 15 13 7 11 18 19 14 11
72 77 82 93 103 56 36 37 37 28 23 18 14 9 18 25 30 30 16 12 17 14 13 13 5 6 7 8 8 5 9 9 5 3 4 11 14 17 20 22 26 25 24 23
70 75 84 96 105 60 17 30 30 26 24 13 6 14 13 17 27 30 25 26 33 33 16 8 5 6 8 5 2 5 4 16 9 9 17 13 7 7 15 22 21 19 14 15
67 73 80 87 96 70 30 34 25 16 5 12 15 19 18 18 19 17 19 35 35 22 9 5 4 9 8 3 0 4 4 2 5 3 10 9 13 24 23 19 16 9 4 11
68 72 77 80 79 57 45 15 14 16 21 14 8 10 15 26 28 34 34 30 19 11 10 9 8 4 4 7 7 7 8 8 7 8 22 14 12 16 17 14 16 20 27 30
71 75 80 89 73 49 42 24 35 25 18 10 8 7 6 15 17 15 17 16 12 9 10 8 7 5 7 5 7 6 10 10 9 10 14 6 23 15 22 27 32 33 38 44
81 81 76 72 56 37 26 22 33 26 10 9 8 5 6 6 7 8 8 7 8 15 9 7 6 7 2 4 8 10 14 11 11 14 15 20 22 22 26 30 40 48 47 42
75 70 61 54 39 15 28 31 26 18 6 10 7 8 6 6 8 8 6 7 7 6 4 4 5 3 3 5 7 12 15 8 7 19 21 22 27 35 41 43 39 38 32 25
63 56 31 14 22 47 32 9 5 5 12 12 8 5 5 4 5 6 4 8 4 4 4 6 4 4 9 5 6 8 13 13 21 27 29 38 44 41 34 30 25 18 10 4
30 11 13 41 31 13 6 8 10 9 7 11 8 8 8 6 5 5 4 5 2 6 5 5 6 6 9 11 13 15 15 15 19 32 41 36 33 30 19 10 6 4 8 11
23 39 36 16 7 7 11 5 3 7 5 4 6 8 8 8 7 8 5 5 2 5 12 4 7 6 20 22 27 34 35 37 37 33 29 20 14 10 8 7 7 9 10 12
23 13 9 7 11 11 4 7 4 5 4 6 8 6 7 7 8 11 4 5 4 13 4 4 5 26 31 39 31 29 25 25 23 20 16 11 9 9 8 8 8 8 8 10
11 9 10 7 5 7 5 5 5 6 12 21 21 10 6 6 6 2 5 3 6 7 7 5 9 34 44 32 26 24 23 19 16 15 12 9 8 8 9 9 8 9 12 18
12 10 7 6 5 10 13 16 13 15 16 14 14 12 6 5 6 3 6 7 7 4 4 6 30 44 40 32 22 23 21 18 14 10 7 6 5 3 4 3 6 12 21 29
11 13 9 10 10 7 12 22 19 14 17 14 10 5 4 4 4 6 5 5 4 6 7 19 41 38 31 28 24 24 19 15 11 8 5 4 3 1 4 10 18 28 33 37
10 10 20 19 23 12 11 14 11 13 8 4 3 4 4 4 4 5 2 3 5 17 21 26 27 32 33 28 25 17 16 14 9 6 5 3 1 6 13 21 29 35 39 43
Wind_Direction_500mb
224 216 204 201 205 190 188 179 196 184 189 183 209 218 211 200 165 183 200 198 167 189 181 176 193 199 235 165 176 182 109 141 183 194 123 299 261 219 204 233 182 216 310 293
222 207 220 203 201 188 176 182 153 169 174 197 205 210 218 208 169 184 181 172 178 175 173 173 193 186 94 182 200 167 170 198 187 180 180 185 225 198 202 129 138 211 197 260
222 214 216 203 194 188 175 177 164 141 180 209 206 198 205 180 203 155 172 144 140 145 161 134 171 164 139 144 156 132 172 186 239 242 276 199 201 203 201 206 207 228 239 271
215 218 212 203 193 186 183 195 185 169 177 199 211 196 194 189 165 199 188 153 191 167 146 161 167 163 146 143 148 137 225 232 214 218 138 241 257 226 204 215 234 224 267 258
224 203 212 198 189 184 199 190 164 170 162 182 197 189 206 191 151 185 175 188 164 175 170 197 187 171 190 176 172 168 165 201 184 225 224 276 266 244 233 233 246 250 263 269
213 200 213 192 188 185 191 198 161 163 161 177 182 192 185 199 148 72 70 156 141 140 99 82 77 99 98 126 165 163 171 156 161 240 356 277 276 241 227 228 228 236 251 262
201 210 197 192 192 188 186 190 163 157 158 188 192 177 184 180 177 137 101 130 116 121 118 101 85 84 84 86 71 80 141 132 77 149 226 224 339 161 283 251 255 248 260 261
203 196 189 191 191 183 191 191 170 160 127 186 180 179 150 130 115 99 114 63 111 142 131 112 116 75 72 72 54 59 109 136 118 179 221 314 280 198 231 217 293 276 254 261
184 186 188 189 190 180 197 194 180 172 128 204 177 164 172 153 146 123 85 102 142 134 80 127 155 182 183 166 139 69 80 66 229 152 221 250 48 69 166 225 274 1 245 210
180 185 189 187 184 182 198 190 174 165 116 152 161 181 178 154 149 112 130 152 169 121 108 111 161 167 343 173 179 174 118 48 208 177 238 279 291 219 161 247 18 19 221 194
181 185 185 181 178 181 192 191 185 173 114 146 167 165 157 152 173 151 145 136 167 127 153 165 168 147 180 194 140 183 180 164 182 142 202 269 159 146 230 10 337 308 288 259
180 181 180 177 175 176 182 186 172 160 140 140 167 169 176 181 172 142 166 118 151 165 120 140 113 136 150 160 194 193 221 229 215 216 223 111 192 276 308 323 298 300 292 294
176 177 176 174 171 159 170 172 173 165 112 104 115 124 144 178 187 177 149 186 169 169 141 140 120 133 163 162 218 167 212 178 231 237 146 243 262 286 292 300 291 294 282 282
173 173 174 176 178 174 168 183 177 166 128 113 96 137 135 155 171 175 181 186 170 158 130 106 134 123 212 179 108 223 31 168 199 248 285 299 83 24 348 333 327 313 302 299
166 169 171 174 181 185 190 187 165 190 149 132 128 103 81 122 153 175 169 163 152 140 106 93 107 118 138 72 232 213 198 60 216 272 5 328 323 339 334 329 332 342 34 65
157 162 166 169 170 175 170 117 216 183 161 117 127 110 90 105 118 129 136 141 131 111 102 97 103 128 166 145 182 96 63 28 326 294 315 317 330 21 20 45 63 84 96 101
150 155 157 159 162 167 179 158 172 180 171 116 107 108 113 116 110 99 92 103 100 87 95 73 115 110 154 167 183 39 1 355 8 360 345 158 37 64 69 85 94 102 104 109
148 152 161 169 173 167 128 124 153 165 146 119 113 88 121 106 65 74 66 77 72 49 91 93 99 104 73 166 58 5 359 360 45 36 61 98 106 97 94 102 111 105 101 96
125 131 138 141 146 102 114 124 112 90 112 104 83 125 144 100 85 83 66 68 71 74 100 86 156 136 174 71 1 2 354 350 104 94 99 109 106 109 114 114 106 98 92 90
128 127 121 90 119 124 118 81 74 60 34 53 81 80 103 90 102 71 90 45 103 131 84 116 76 87 103 85 70 36 17 121 134 112 112 116 115 115 110 101 100 98 98 97
135 79 71 120 120 122 77 70 48 6 53 40 76 82 117 94 131 119 46 118 91 144 136 207 158 151 153 132 108 92 88 118 123 120 114 110 103 111 115 109 107 37 355 347
104 115 105 95 92 83 82 45 45 35 97 78 96 100 94 92 96 101 81 96 138 144 138 183 189 115 148 141 124 114 109 107 110 113 116 114 108 100 81 52 27 18 9 1
85 74 83 32 3 59 75 147 105 108 115 119 132 99 96 94 86 82 106 134 131 132 177 207 70 142 149 141 132 124 126 126 118 111 111 108 88 75 72 60 49 45 37 2
71 53 53 36 33 55 45 57 77 107 115 119 117 87 82 91 78 82 125 78 149 196 214 174 147 150 149 143 141 137 136 131 122 116 108 92 75 63 50 37 27 2 336 322
70 52 73 62 99 68 91 102 99 101 119 110 95 74 81 53 102 54 126 163 207 240 174 130 160 161 155 151 146 142 134 130 125 121 112 103 95 85 68 41 347 325 318 317
62 57 86 108 91 62 75 96 92 114 118 97 69 85 95 85 103 167 192 192 196 151 143 141 163 157 154 149 150 147 141 141 141 136 125 116 131 114 355 334 330 335 336 335
54 53 76 88 91 84 88 92 86 122 90 71 97 120 79 120 139 152 210 84 103 126 121 142 154 163 165 166 165 162 159 160 159 158 157 145 14 339 328 333 336 337 336 334
Wind_Speed_850mb
64 90 88 85 79 68 62 40 18 38 45 24 26 24 25 11 15 14 13 13 14 24 21 17 18 21 5 10 9 11 4 2 8 10 6 1 4 10 16 7 9 2 5 6
68 75 72 94 85 80 77 38 18 40 61 22 17 18 14 14 12 16 17 16 10 11 19 11 11 12 4 7 10 12 12 7 8 8 9 8 13 17 10 7 2 12 6 5
74 100 64 88 82 82 61 49 15 18 30 33 32 27 30 17 6 10 9 10 9 15 11 1 14 15 5 5 5 7 9 7 14 19 3 1 12 23 23 21 8 9 20 23
76 91 75 87 83 83 62 38 20 33 25 32 24 32 29 28 12 7 16 9 17 17 11 12 11 11 10 7 12 6 5 11 9 3 1 6 9 15 25 31 28 15 22 23
74 92 67 87 83 85 72 29 20 29 52 47 26 23 24 34 11 11 15 15 20 14 11 16 20 20 14 9 13 9 4 7 6 7 4 4 14 17 21 30 32 30 38 40
89 76 75 87 90 105 45 33 33 54 18 28 24 22 23 27 23 3 6 22 18 12 9 10 16 14 17 12 13 13 9 11 8 5 5 5 12 30 36 26 25 29 29 31
92 82 85 92 94 117 42 35 38 32 13 25 27 24 20 24 18 13 10 8 8 12 40 43 37 37 30 23 19 6 11 10 3 2 3 6 3 1 6 24 33 30 33 21
76 78 88 91 94 111 59 31 34 25 7 31 23 27 14 22 14 11 14 8 9 44 10 8 8 4 5 9 14 10 1 8 5 5 8 12 23 6 6 7 12 8 23 16
73 84 87 89 96 101 51 34 31 35 23 20 38 25 28 15 11 10 9 17 40 10 4 4 8 9 7 9 9 6 9 6 4 6 5 7 6 7 2 4 11 6 6 8
80 82 84 88 103 102 45 35 30 32 15 16 27 31 25 16 12 11 15 22 7 5 3 4 5 6 2 10 11 8 4 2 7 7 8 12 2 3 6 5 7 3 3 7
77 78 82 91 103 97 46 44 36 29 14 19 20 22 21 18 20 12 24 14 4 5 4 5 6 4 8 6 5 8 11 12 7 5 6 8 12 12 6 7 9 6 8 9
74 77 83 93 105 66 46 45 35 27 20 14 22 23 30 33 27 22 37 2 15 17 7 2 6 5 2 2 6 6 7 6 2 11 3 6 15 13 7 11 18 19 14 11
72 77 82 93 103 56 36 37 37 28 23 18 14 9 18 25 30 30 16 12 17 14 13 13 5 6 7 8 8 5 9 9 5 3 4 11 14 17 20 22 26 25 24 23
70 75 84 96 105 60 17 30 30 26 24 13 6 14 13 17 27 30 25 26 33 33 16 8 5 6 8 5 2 5 4 16 9 9 17 13 7 7 15 22 21 19 14 15
67 73 80 87 96 70 30 34 25 16 5 12 15 19 18 18 19 17 19 35 35 22 9 5 4 9 8 3 0 4 4 2 5 3 10 9 13 24 23 19 16 9 4 11
68 72 77 80 79 57 45 15 14 16 21 14 8 10 15 26 28 34 34 30 19 11 10 9 8 4 4 7 7 7 8 8 7 8 22 14 12 16 17 14 16 20 27 30
71 75 80 89 73 49 42 24 35 25 18 10 8 7 6 15 17 15 17 16 12 9 10 8 7 5 7 5 7 6 10 10 9 10 14 6 23 15 22 27 32 33 38 44
81 81 76 72 56 37 26 22 33 26 10 9 8 5 6 6 7 8 8 7 8 15 9 7 6 7 2 4 8 10 14 11 11 14 15 20 22 22 26 30 40 48 47 42
75 70 61 54 39 15 28 31 26 18 6 10 7 8 6 6 8 8 6 7 7 6 4 4 5 3 3 5 7 12 15 8 7 19 21 22 27 35 41 43 39 38 32 25
63 56 31 14 22 47 32 9 5 5 12 12 8 5 5 4 5 6 4 8 4 4 4 6 4 4 9 5 6 8 13 13 21 27 29 38 44 41 34 30 25 18 10 4
30 11 13 41 31 13 6 8 10 9 7 11 8 8 8 6 5 5 4 5 2 6 5 5 6 6 9 11 13 15 15 15 19 32 41 36 33 30 19 10 6 4 8 11
23 39 36 16 7 7 11 5 3 7 5 4 6 8 8 8 7 8 5 5 2 5 12 4 7 6 20 22 27 34 35 37 37 33 29 20 14 10 8 7 7 9 10 12
23 13 9 7 11 11 4 7 4 5 4 6 8 6 7 7 8 11 4 5 4 13 4 4 5 26 31 39 31 29 25 25 23 20 16 11 9 9 8 8 8 8 8 10
11 9 10 7 5 7 5 5 5 6 12 21 21 10 6 6 6 2 5 3 6 7 7 5 9 34 44 32 26 24 23 19 16 15 12 9 8 8 9 9 8 9 12 18
12 10 7 6 5 10 13 16 13 15 16 14 14 12 6 5 6 3 6 7 7 4 4 6 30 44 40 32 22 23 21 18 14 10 7 6 5 3 4 3 6 12 21 29
11 13 9 10 10 7 12 22 19 14 17 14 10 5 4 4 4 6 5 5 4 6 7 19 41 38 31 28 24 24 19 15 11 8 5 4 3 1 4 10 18 28 33 37
10 10 20 19 23 12 11 14 11 13 8 4 3 4 4 4 4 5 2 3 5 17 21 26 27 32 33 28 25 17 16 14 9 6 5 3 1 6 13 21 29 35 39 43
Wind_Direction_850mb
224 216 204 201 205 190 188 179 196 184 189 183 209 218 211 200 165 183 200 198 167 189 181 176 193 199 235 165 176 182 109 141 183 194 123 299 261 219 204 233 182 216 310 293
222 207 220 203 201 188 176 182 153 169 174 197 205 210 218 208 169 184 181 172 178 175 173 173 193 186 94 182 200 167 170 198 187 180 180 185 225 198 202 129 138 211 197 260
222 214 216 203 194 188 175 177 164 141 180 209 206 198 205 180 203 155 172 144 140 145 161 134 171 164 139 144 156 132 172 186 239 242 276 199 201 203 201 206 207 228 239 271
215 218 212 203 193 186 183 195 185 169 177 199 211 196 194 189 165 199 188 153 191 167 146 161 167 163 146 143 148 137 225 232 214 218 138 241 257 226 204 215 234 224 267 258
224 203 212 198 189 184 199 190 164 170 162 182 197 189 206 191 151 185 175 188 164 175 170 197 187 171 190 176 172 168 165 201 184 225 224 276 266 244 233 233 246 250 263 269
213 200 213 192 188 185 191 198 161 163 161 177 182 192 185 199 148 72 70 156 141 140 99 82 77 99 98 126 165 163 171 156 161 240 356 277 276 241 227 228 228 236 251 262
201 210 197 192 192 188 186 190 163 157 158 188 192 177 184 180 177 137 101 130 116 121 118 101 85 84 84 86 71 80 141 132 77 149 226 224 339 161 283 251 255 248 260 261
203 196 189 191 191 183 191 191 170 160 127 186 180 179 150 130 115 99 114 63 111 142 131 112 116 75 72 72 54 59 109 136 118 179 221 314 280 198 231 217 293 276 254 261
184 186 188 189 190 180 197 194 180 172 128 204 177 164 172 153 146 123 85 102 142 134 80 127 155 182 183 166 139 69 80 66 229 152 221 250 48 69 166 225 274 1 245 210
180 185 189 187 184 182 198 190 174 165 116 152 161 181 178 154 149 112 130 152 169 121 108 111 161 167 343 173 179 174 118 48 208 177 238 279 291 219 161 247 18 19 221 194
181 185 185 181 178 181 192 191 185 173 114 146 167 165 157 152 173 151 145 136 167 127 153 165 168 147 180 194 140 183 180 164 182 142 202 269 159 146 230 10 337 308 288 259
180 181 180 177 175 176 182 186 172 160 140 140 167 169 176 181 172 142 166 118 151 165 120 140 113 136 150 160 194 193 221 229 215 216 223 111 192 276 308 323 298 300 292 294
176 177 176 174 171 159 170 172 173 165 112 104 115 124 144 178 187 177 149 186 169 169 141 140 120 133 163 162 218 167 212 178 231 237 146 243 262 286 292 300 291 294 282 282
173 173 174 176 178 174 168 183 177 166 128 113 96 137 135 155 171 175 181 186 170 158 130 106 134 123 212 179 108 223 31 168 199 248 285 299 83 24 348 333 327 313 302 299
166 169 171 174 181 185 190 187 165 190 149 132 128 103 81 122 153 175 169 163 152 140 106 93 107 118 138 72 232 213 198 60 216 272 5 328 323 339 334 329 332 342 34 65
157 162 166 169 170 175 170 117 216 183 161 117 127 110 90 105 118 129 136 141 131 111 102 97 103 128 166 145 182 96 63 28 326 294 315 317 330 21 20 45 63 84 96 101
150 155 157 159 162 167 179 158 172 180 171 116 107 108 113 116 110 99 92 103 100 87 95 73 115 110 154 167 183 39 1 355 8 360 345 158 37 64 69 85 94 102 104 109
148 152 161 169 173 167 128 124 153 165 146 119 113 88 121 106 65 74 66 77 72 49 91 93 99 104 73 166 58 5 359 360 45 36 61 98 106 97 94 102 111 105 101 96
125 131 138 141 146 102 114 124 112 90 112 104 83 125 144 100 85 83 66 68 71 74 100 86 156 136 174 71 1 2 354 350 104 94 99 109 106 109 114 114 106 98 92 90
128 127 121 90 119 124 118 81 74 60 34 53 81 80 103 90 102 71 90 45 103 131 84 116 76 87 103 85 70 36 17 121 134 112 112 116 115 115 110 101 100 98 98 97
135 79 71 120 120 122 77 70 48 6 53 40 76 82 117 94 131 119 46 118 91 144 136 207 158 151 153 132 108 92 88 118 123 120 114 110 103 111 115 109 107 37 355 347
104 115 105 95 92 83 82 45 45 35 97 78 96 100 94 92 96 101 81 96 138 144 138 183 189 115 148 141 124 114 109 107 110 113 116 114 108 100 81 52 27 18 9 1
85 74 83 32 3 59 75 147 105 108 115 119 132 99 96 94 86 82 106 134 131 132 177 207 70 142 149 141 132 124 126 126 118 111 111 108 88 75 72 60 49 45 37 2
71 53 53 36 33 55 45 57 77 107 115 119 117 87 82 91 78 82 125 78 149 196 214 174 147 150 149 143 141 137 136 131 122 116 108 92 75 63 50 37 27 2 336 322
70 52 73 62 99 68 91 102 99 101 119 110 95 74 81 53 102 54 126 163 207 240 174 130 160 161 155 151 146 142 134 130 125 121 112 103 95 85 68 41 347 325 318 317
62 57 86 108 91 62 75 96 92 114 118 97 69 85 95 85 103 167 192 192 196 151 143 141 163 157 154 149 150 147 141 141 141 136 125 116 131 114 355 334 330 335 336 335
54 53 76 88 91 84 88 92 86 122 90 71 97 120 79 120 139 152 210 84 103 126 121 142 154 163 165 166 165 162 159 160 159 158 157 145 14 339 328 333 336 337 336 334